Location: NJAA Observatory
(40.6819°N, 74.8979°W)
Time: 09:49:36
(UTC-05:00)

Cosmos 2237 Rocket - Visible Passes

Search period start: 07 February 2016 00:00
Search period end: 17 February 2016 00:00
Orbit: 835 x 850 km, 71.0° (Epoch: 07 February)

Date Brightness Start Highest point End Pass type
(mag) Time Alt. Az. Time Alt. Az. Time Alt. Az.
07 Feb 4.1 18:45:16 10° WSW 18:50:06 28° NW 18:54:57 10° N visible
08 Feb 4.0 18:30:21 10° WSW 18:35:15 29° NW 18:40:10 10° N visible
09 Feb 4.0 18:15:27 10° WSW 18:20:25 30° WNW 18:25:24 10° N visible
10 Feb 3.9 18:00:32 10° WSW 18:05:34 32° WNW 18:10:37 10° N visible
